• Processing (Info)

  • MPEC 2016-C158: 2016 CB194

    The following Minor Planet Electronic Circular may be linked-to from your own Web pages, but must not otherwise be redistributed electronically.

    A form allowing access to any MPEC is at the bottom of this page.


    Read MPEC 2016-C157 Read MPEC 2016-C159


    M.P.E.C. 2016-C158                               Issued 2016 Feb. 12, 20:23 UT
    
         The Minor Planet Electronic Circulars contain information on unusual
             minor planets and routine data on comets.  They are published
        on behalf of Division F of the International Astronomical Union by the
              Minor Planet Center, Smithsonian Astrophysical Observatory,
                              Cambridge, MA 02138, U.S.A.
    
                 Prepared using the Tamkin Foundation Computer Network
    
                                  MPC@CFA.HARVARD.EDU
                URL https://www.minorplanetcenter.net/    ISSN 1523-6714
    
                                      2016 CB194
    
    Observations:
         K16CJ4B  C2016 01 03.50932511 02 12.941+21 26 37.54         20.5 RtEC158F51
         K16CJ4B  C2016 01 03.52160611 02 12.609+21 26 43.23         20.6 RtEC158F51
         K16CJ4B  C2016 01 03.53384811 02 12.298+21 26 49.35         20.9 RtEC158F51
         K16CJ4B  C2016 01 03.54619411 02 11.962+21 26 55.46         20.6 RtEC158F51
         K16CJ4B  C2016 01 14.46477110 55 29.621+23 01 08.78         20.5 RtEC158F51
         K16CJ4B  C2016 01 14.47792710 55 28.961+23 01 16.12         21.2 RtEC158F51
         K16CJ4B  C2016 01 14.49105410 55 28.279+23 01 23.36         20.9 RtEC158F51
         K16CJ4B  C2016 01 14.50418410 55 27.612+23 01 30.85         20.8 RtEC158F51
         K16CJ4B  C2016 01 21.45268410 48 58.062+24 06 19.44         21.2 RtEC158F51
         K16CJ4B  C2016 01 21.46692010 48 57.125+24 06 27.69         20.7 RtEC158F51
         K16CJ4B* C2016 02 10.38200 10 23 30.625+26 56 10.72         21.2 wLEC158F51
         K16CJ4B  C2016 02 10.39298 10 23 29.657+26 56 15.36         21.2 wLEC158F51
         K16CJ4B  C2016 02 10.40400 10 23 28.706+26 56 19.90         21.5 wLEC158F51
         K16CJ4B  C2016 02 10.41500 10 23 27.744+26 56 24.55         21.2 wLEC158F51
         K16CJ4B _C2016 02 11.35809510 22 07.404+27 02 50.47         20.9 RtEC158568
         K16CJ4B _C2016 02 11.35913310 22 07.311+27 02 50.87         20.7 RtEC158568
         K16CJ4B _C2016 02 11.36017210 22 07.222+27 02 51.32         20.9 RtEC158568
         K16CJ4B  C2016 02 12.37400 10 20 40.33 +27 09 32.5          21.0 VoEC158691
         K16CJ4B  C2016 02 12.37907 10 20 39.86 +27 09 34.8          20.8 VoEC158691
         K16CJ4B  C2016 02 12.38416 10 20 39.42 +27 09 36.7          20.8 VoEC158691
         K16CJ4B HC2016 02 12.38761 10 20 39.10 +27 09 38.0          21.6 VoEC158691
         K16CJ4B HC2016 02 12.39292 10 20 38.65 +27 09 40.4          21.4 VoEC158691
         K16CJ4B HC2016 02 12.39824 10 20 38.20 +27 09 42.1          21.4 VoEC158691
         K16CJ4B  C2016 02 12.40700 10 20 37.40 +27 09 45.3          20.5 VqEC158I52
         K16CJ4B  C2016 02 12.41477 10 20 36.82 +27 09 48.4          20.7 VqEC158I52
         K16CJ4B  C2016 02 12.42103 10 20 36.14 +27 09 51.0          20.6 VqEC158I52
         K16CJ4B  C2016 02 12.42729 10 20 35.73 +27 09 53.5          21.0 VqEC158I52
    
    Observer details:
    568 Mauna Kea.  Observers R. J. Wainscoat, P. Forshay.  Measurers M. Micheli,
        R. J. Wainscoat.  3.6-m Canada-France-Hawaii Telescope + CCD.
    691 Steward Observatory, Kitt Peak.  Observers R. A. Mastaler, R. A. Mastaler
        R. A. Mastaler.  Measurer R. A. Mastaler.  0.9-m f/3 reflector + CCD.
    F51 Pan-STARRS 1, Haleakala.  Observers B. Gibson, T. Goggia, N. Primak,
        A. Schultz, M. Willman.  Measurers K. Chambers, S. Chastel, L. Denneau,
        H. Flewelling, M. Huber, E. Lilly, E. Magnier, R. Wainscoat, C. Waters,
        R. Weryk, M. Micheli.  1.8-m Ritchey-Chretien + CCD.
    I52 Steward Observatory, Mt. Lemmon Station.  Observer D. C. Fuls.  Measurers
        E. J. Christensen, D. C. Fuls, A. R. Gibbs, A. D. Grauer, J. A. Johnson,
        R. A. Kowalski, S. M. Larson, G. J. Leonard, R. G. Matheny, R. L. Seaman,
        F. C. Shelly.  1.0-m reflector + CCD.
    
    Orbital elements:
    2016 CB194                                          PHA, Earth MOID = 0.0059 AU
    Epoch 2016 Jan. 13.0 TT = JDT 2457400.5                 MPC
    M  48.55618              (2000.0)            P               Q
    n   0.24847354     Peri.  324.86361     +0.96471647     -0.22985172
    a   2.5058166      Node    48.95553     +0.26318973     +0.82834422
    e   0.6366576      Incl.    9.80329     +0.00730100     +0.51089534
    P   3.97           H   17.5           G   0.15           U   4
    Residuals in seconds of arc
    160103 F51  0.0   0.0     160121 F51  0.2-  0.1+    160212 691  0.4-  0.2+
    160103 F51  0.1-  0.2-    160210 F51  0.2+  0.0     160212 691  0.3-  0.1+
    160103 F51  0.1+  0.0     160210 F51  0.1+  0.0     160212 691  0.5-  0.1+
    160103 F51  0.0   0.2+    160210 F51  0.2+  0.1-    160212 691  0.3-  0.4+
    160114 F51  0.0   0.0     160210 F51  0.2+  0.1-    160212 691  0.1-  0.1+
    160114 F51  0.2+  0.0     160211 568  0.1-  0.3-    160212 I52  0.5-  0.0
    160114 F51  0.0   0.1-    160211 568  0.1-  0.3-    160212 I52  0.8+  0.1+
    160114 F51  0.0   0.1+    160211 568  0.1-  0.3-    160212 I52  1.0-  0.3+
    160121 F51  0.0   0.0     160212 691  0.0   0.2-    160212 I52  0.9+  0.4+
    
    Ephemeris:
    2016 CB194               a,e,i = 2.51, 0.64, 10                  q = 0.9105
    Date    TT    R. A. (2000) Decl.     Delta      r     Elong.  Phase     V
    2016 01 13    10 56 38.8 +22 47 46   1.5759  2.3636   133.6    17.5    21.3
    ...
    2016 01 28    10 41 30.2 +25 06 59   1.5644  2.4710   150.8    11.2    21.1
    ...
    2016 02 05    10 31 02.8 +26 15 48   1.5816  2.5265   158.9     8.1    21.1
    ...
    2016 02 11    10 22 37.8 +27 00 25   1.6067  2.5673   163.2     6.4    21.1
    2016 02 12    10 21 12.4 +27 07 06   1.6119  2.5741   163.7     6.2    21.1
    2016 02 13    10 19 47.0 +27 13 34   1.6175  2.5808   164.0     6.1    21.1
    ...
    2016 02 19    10 11 18.3 +27 47 06   1.6571  2.6207   163.8     6.0    21.2
    ...
    2016 02 27    10 00 35.8 +28 17 15   1.7264  2.6729   158.6     7.8    21.4
    ...
    2016 03 13    09 44 17.5 +28 30 06   1.9037  2.7676   143.6    12.3    21.8
    
    A. U. Tomatic                (C) Copyright 2016 MPC           M.P.E.C. 2016-C158
    

    Read MPEC 2016-C157 Read MPEC 2016-C159


    MPEC number:

    Enter an MPEC number in one of the following forms:

    • 1997-B01 (the full form)
    • J97B01 (the packed version of the full form)
    • B01 (the abbreviated form)